Regional Weather Roundup
Issued by NWS

Home | Current Version | Previous Version | Graphics & Text | Print | Product List | Glossary On
Versions: 1 2 3 4 5 6 7 8 9 10 11 12 13 14 15 16 17 18 19 20 21 22 23 24 25 26 27 28 29 30 31 32 33 34 35 36 37 38 39 40 41 42 43 44 45 46 47 48 49 50
700
ASUS43 KOAX 191310
RWRNE

WEATHER ROUNDUP FOR NEBRASKA
NATIONAL WEATHER SERVICE OMAHA NE
800 AM CDT THU APR 19 2018

NOTES: SATELLITE DATA IS BEING USED TO AUGMENT CLOUD COVER ABOVE
       12000 FEET.
       "FAIR" INDICATES FEW OR NO CLOUDS BELOW 12,000 FEET WITH NO
       SIGNIFICANT WEATHER AND/OR OBSTRUCTIONS TO VISIBILITY.


NEZ001>004-019>022-054>056-191400-
NEBRASKA PANHANDLE

CITY           SKY/WX    TMP DP  RH WIND       PRES   REMARKS
SCOTTSBLUFF    CLEAR     31  30  96 E10       30.33R WCI  22
ALLIANCE       CLEAR     30  29  96 SE7       30.34R WCI  23
CHADRON        CLEAR     28  26  92 N5        30.34S WCI  23
GORDON         FAIR      27  26  94 CALM      30.35S
KIMBALL        CLEAR     28  24  86 SE6       30.31R WCI  22
SIDNEY         CLEAR     32  29  88 S10       30.34R WCI  24
$$

NEZ057>060-069>072-079>082-191400-
SOUTHWEST NEBRASKA

CITY           SKY/WX    TMP DP  RH WIND       PRES   REMARKS
NORTH PLATTE   SUNNY     27  24  89 CALM      30.42R
IMPERIAL       CLEAR     28  26  92 CALM      30.40R
LEXINGTON      SUNNY     28  26  89 NW3       30.42S
MCCOOK         SUNNY     27  24  89 CALM      30.42R
OGALLALA       CLEAR     30  29  94 CALM      30.39S
$$

NEZ005>010-023>029-035>040-094-191400-
NORTH CENTRAL NEBRASKA

CITY           SKY/WX    TMP DP  RH WIND       PRES   REMARKS
VALENTINE      MOSUNNY   27  25  92 W3        30.41R
AINSWORTH      SUNNY     29  28  99 W6        30.42R WCI  23
BROKEN BOW     SUNNY     29  26  89 CALM      30.42R
O`NEILL        SUNNY     31  30  94 W3        30.42R
ORD            SUNNY     29  27  92 N3        30.43R
THEDFORD       SUNNY     28  27  96 CALM      30.41S
$$

NEZ041-046>049-061>064-073>077-083>087-191400-
SOUTH CENTRAL NEBRASKA

CITY           SKY/WX    TMP DP  RH WIND       PRES   REMARKS
GRAND ISLAND   SUNNY     31  28  89 W8        30.44R WCI  23
AURORA         SUNNY     31  31  98 NW6       30.43R WCI  26
HASTINGS       SUNNY     30  28  92 NW8       30.44R WCI  22
HEBRON         SUNNY     31  29  92 W5        30.45R WCI  26
HOLDREGE       SUNNY     29  28  94 N6        30.42S WCI  23
KEARNEY          N/A     30  28  92 NW7       30.44R WCI  23
YORK             N/A     32  32 100 NW7       30.43R WCI  26
$$

NEZ011>018-030>034-042>045-191400-
NORTHEAST NEBRASKA

CITY           SKY/WX    TMP DP  RH WIND       PRES   REMARKS
NORFOLK        SUNNY     32  30  92 NW3       30.41R
ALBION         SUNNY     31  29  92 NW6       30.42R WCI  25
BLAIR          SUNNY     34  31  89 N8        30.41R WCI  27
COLUMBUS       SUNNY     36  33  89 N3        30.44R
FREMONT        SUNNY     33  32  96 CALM      30.43R
TEKAMAH        SUNNY     31  29  92 NW5       30.44R WCI  26
WAYNE          MOSUNNY   32  31  96 CALM      30.42R
$$

NEZ050>053-065>068-078-088>093-191400-
SOUTHEAST NEBRASKA

CITY           SKY/WX    TMP DP  RH WIND       PRES   REMARKS
LINCOLN        MOSUNNY   34  30  85 N5        30.44R WCI  30
OMAHA EPPLEY   SUNNY     33  30  88 N5        30.43R WCI  29
BEATRICE       SUNNY     31  30  93 CALM      30.43R
FALLS CITY     SUNNY     32  28  85 NW6       30.42R WCI  26
NEBRASKA CITY  SUNNY     33  32  97 N6        30.42R WCI  28
PLATTSMOUTH    SUNNY     32  30  92 W8        30.43R WCI  25
$$

NEZ044-045-051>053-067-191400-
OMAHA AREA

CITY           SKY/WX    TMP DP  RH WIND       PRES   REMARKS
OMAHA EPPLEY   SUNNY     33  30  88 N5        30.43R WCI  29
BLAIR          SUNNY     34  31  89 N8        30.41R WCI  27
FREMONT        SUNNY     33  32  96 CALM      30.43R
MILLARD        SUNNY     35  32  90 NW5       30.44R WCI  30
OFFUTT AFB     SUNNY     33  30  89 NW6       30.42R WCI  27
PLATTSMOUTH    SUNNY     32  30  92 W8        30.43R WCI  25
WAHOO          FAIR      32  29  86 NW5       30.43R WCI  28
$$




USA.gov is the U.S. government's official web portal to all federal, state and local government web resources and services.